Weather reports worldwide

Advertisment
Boulmer, United Kingdom (3240): temperature & dewpoint: 21.06.2017 06:00:00 - 27.06.2017 06:00:00 (BST)Boulmer, United Kingdom (3240): temperature 5cm: 21.06.2017 06:00:00 - 27.06.2017 06:00:00 (BST)Boulmer, United Kingdom (3240): wind speed & gusts: 21.06.2017 06:00:00 - 27.06.2017 06:00:00 (BST)Boulmer, United Kingdom (3240): wind direction: 21.06.2017 06:00:00 - 27.06.2017 06:00:00 (BST)Boulmer, United Kingdom (3240): reduced air pressure: 21.06.2017 06:00:00 - 27.06.2017 06:00:00 (BST)Boulmer, United Kingdom (3240): visibility: 21.06.2017 06:00:00 - 27.06.2017 06:00:00 (BST)Boulmer, United Kingdom (3240): sunshine duration: 21.06.2017 06:00:00 - 27.06.2017 06:00:00 (BST)Boulmer, United Kingdom (3240): precipitation: 21.06.2017 06:00:00 - 27.06.2017 06:00:00 (BST)
Date & Time tt [°C] td [°C] tt 5cm [°C] ff [km/h] ff [kn] fx [km/h] fx [kn] dd ppp [hPa] vv [km] sd [min] rr [mm]
27.06.2017 06:00:00 11,0 10,2 - 11 6 - - SE 1012,2 6 0 2,4
27.06.2017 05:00:00 11,2 10,5 - 8 4 - - SE 1012,3 10 0 0,4
27.06.2017 04:00:00 11,2 10,5 - 11 6 - - SSE 1012,5 10 0 0,8
27.06.2017 03:00:00 11,7 11,3 - 9 5 - - SSE 1013,2 10 0 0,0
27.06.2017 02:00:00 12,0 11,1 - 9 5 - - ESE 1013,4 10 0 0,0
27.06.2017 01:00:00 11,9 11,0 - 11 6 - - ESE 1013,9 10 - 0,0
27.06.2017 00:00:00 11,8 10,9 - 9 5 - - ESE 1014,2 10 0 0,0
26.06.2017 23:00:00 11,9 10,8 - 8 4 - - E 1014,5 10 0 0,0
26.06.2017 22:00:00 11,9 10,5 - 8 4 - - ESE 1014,6 10 0 0,0
26.06.2017 21:00:00 12,1 10,5 - 5 3 - - ESE 1014,6 10 0 0,0
26.06.2017 20:00:00 12,4 10,3 - 5 3 - - E 1014,6 10 0 0,0
26.06.2017 19:00:00 12,7 10,0 - 9 5 - - SSE 1014,8 10 0 0,0
26.06.2017 18:00:00 12,8 9,8 - 9 5 - - ESE 1014,8 45 0 0,0
26.06.2017 17:00:00 12,8 10,0 - 11 6 - - SSE 1015,0 10 0 0,0
26.06.2017 16:00:00 12,8 9,5 - 9 5 - - ESE 1015,1 26 0 0,0
26.06.2017 15:00:00 12,6 9,4 - 8 4 - - E 1015,1 10 0 0,0
26.06.2017 14:00:00 13,0 9,2 - 9 5 - - E 1015,0 10 0 0,0
26.06.2017 13:00:00 13,1 9,3 - 8 4 - - ENE 1015,0 10 0 0,0
26.06.2017 12:00:00 13,3 8,7 - 15 8 - - ENE 1014,7 10 0 0,0
26.06.2017 11:00:00 12,9 8,6 - 11 6 - - E 1014,6 10 0 0,0
26.06.2017 10:00:00 13,8 7,8 - 18 10 - - NE 1013,9 27 30 0,0
26.06.2017 09:00:00 14,6 8,2 - 11 6 - - NW 1013,5 45 18 0,0
26.06.2017 08:00:00 12,5 8,0 - 15 8 - - WNW 1013,4 10 36 0,0
26.06.2017 07:00:00 11,4 7,1 - 18 10 - - W 1013,0 10 24 0,0
26.06.2017 06:00:00 10,0 6,7 - 16 9 - - W 1012,8 10 0 0,0
26.06.2017 05:00:00 9,6 6,3 - 16 9 - - W 1012,5 10 0 0,0
26.06.2017 04:00:00 9,9 6,2 - 18 10 - - W 1012,4 10 0 0,0
26.06.2017 03:00:00 10,2 6,5 - 16 9 - - W 1012,0 10 0 0,0
26.06.2017 02:00:00 10,1 6,5 - 15 8 - - W 1011,9 10 0 0,0
26.06.2017 01:00:00 10,7 6,7 - 18 10 - - W 1011,5 10 - 0,0
26.06.2017 00:00:00 11,0 6,5 - 18 10 - - W 1011,2 10 0 0,0
25.06.2017 23:00:00 11,9 6,6 - 22 12 - - W 1010,6 10 0 0,0
25.06.2017 22:00:00 13,1 6,4 - 22 12 - - W 1010,2 10 12 0,0
25.06.2017 21:00:00 14,6 6,4 - 24 13 - - W 1009,8 10 36 0,0
25.06.2017 20:00:00 15,6 5,1 - 28 15 46 25 W 1008,7 10 60 0,0
25.06.2017 19:00:00 16,8 6,6 - 24 13 46 25 W 1008,2 10 18 0,0
25.06.2017 18:00:00 16,8 5,0 - 26 14 - - W 1007,5 10 0 0,0
25.06.2017 17:00:00 17,9 4,7 - 26 14 - - W 1007,2 10 6 0,0
25.06.2017 16:00:00 18,2 5,0 - 24 13 - - W 1007,1 10 36 0,0
25.06.2017 15:00:00 18,4 5,4 - 28 15 - - W 1006,9 10 48 0,0
25.06.2017 14:00:00 18,4 6,1 - 24 13 - - W 1006,8 10 42 0,0
25.06.2017 13:00:00 16,6 5,3 - 26 14 - - W 1007,1 10 24 0,0
25.06.2017 12:00:00 17,4 6,7 - 26 14 - - W 1006,8 10 48 0,0
25.06.2017 11:00:00 16,7 5,7 - 28 15 46 25 W 1006,4 10 60 0,0
25.06.2017 10:00:00 15,8 5,6 - 34 18 52 28 W 1006,2 10 60 0,0
25.06.2017 09:00:00 14,4 5,0 - 34 18 52 28 W 1005,7 10 60 0,0
25.06.2017 08:00:00 13,3 5,6 - 26 14 - - W 1005,8 10 60 0,0
25.06.2017 07:00:00 11,6 6,4 - 24 13 - - WSW 1005,8 10 60 0,0
25.06.2017 06:00:00 10,5 6,0 - 16 9 - - WSW 1006,0 35 48 0,0
25.06.2017 05:00:00 8,5 6,3 - 16 9 - - S 1006,0 10 0 0,0
25.06.2017 04:00:00 9,5 5,9 - 16 9 - - SW 1006,0 10 0 0,0
25.06.2017 03:00:00 9,3 6,1 - 21 11 - - SW 1005,9 10 0 0,0
25.06.2017 02:00:00 9,2 6,3 - 11 6 - - WSW 1006,3 10 0 0,0
25.06.2017 01:00:00 9,9 6,3 - 11 6 - - SW 1006,4 10 - 0,0
25.06.2017 00:00:00 12,1 6,5 - 18 10 - - WSW 1006,7 10 0 0,0
24.06.2017 23:00:00 13,1 6,4 - 21 11 - - WSW 1006,8 10 0 0,0
24.06.2017 22:00:00 13,5 7,0 - 13 7 - - WSW 1006,5 40 0 0,0
24.06.2017 21:00:00 14,1 6,7 - 16 9 - - WSW 1006,2 10 18 0,0
24.06.2017 20:00:00 15,5 6,1 - 22 12 46 25 WSW 1005,8 10 24 0,0
24.06.2017 19:00:00 15,9 5,9 - 22 12 50 27 W 1005,9 10 6 0,0
24.06.2017 18:00:00 16,3 5,7 - 35 19 59 32 WSW 1005,9 10 6 0,0
24.06.2017 17:00:00 17,4 6,9 - 42 23 59 32 W 1005,7 10 54 0,0
24.06.2017 16:00:00 17,8 7,0 - 26 14 50 27 WSW 1006,0 27 30 0,0
24.06.2017 15:00:00 18,8 6,1 - 37 20 57 31 WSW 1006,1 17 54 0,0
24.06.2017 14:00:00 17,5 7,6 - 31 17 57 31 WSW 1006,6 28 36 0,0
24.06.2017 13:00:00 17,9 8,4 - 34 18 59 32 WSW 1006,9 10 36 0,0
24.06.2017 12:00:00 17,5 7,5 - 31 17 61 33 WSW 1007,0 10 54 0,0
24.06.2017 11:00:00 17,0 8,7 - 35 19 57 31 WSW 1006,8 10 54 0,0
24.06.2017 10:00:00 15,7 7,5 - 34 18 57 31 WSW 1007,2 35 60 0,0
24.06.2017 09:00:00 14,6 7,1 - 35 19 54 29 WSW 1007,5 10 60 0,0
24.06.2017 08:00:00 13,5 7,3 - 31 17 48 26 WSW 1007,6 10 60 0,0
24.06.2017 07:00:00 12,9 7,2 - 26 14 - - WSW 1007,7 10 60 0,0
24.06.2017 06:00:00 11,0 7,9 - 21 11 - - WSW 1008,0 10 30 0,0
24.06.2017 05:00:00 10,5 7,0 - 22 12 - - WSW 1008,1 10 0 0,0
24.06.2017 04:00:00 9,8 6,9 - 16 9 - - WSW 1008,2 10 0 0,0
24.06.2017 03:00:00 10,7 7,7 - 13 7 - - W 1008,6 10 0 0,0
24.06.2017 02:00:00 10,9 8,5 - 15 8 - - WSW 1008,6 10 0 0,0
24.06.2017 01:00:00 11,0 8,8 - 16 9 - - WSW 1008,3 10 - 0,0
24.06.2017 00:00:00 12,2 9,1 - 16 9 - - WSW 1008,5 10 0 0,0
23.06.2017 23:00:00 13,4 9,7 - 13 7 - - W 1008,6 10 0 0,0
23.06.2017 22:00:00 14,7 10,3 - 15 8 - - SW 1008,4 10 6 0,0
23.06.2017 21:00:00 15,9 12,2 - 11 6 - - SSW 1008,3 10 6 0,0
23.06.2017 20:00:00 17,0 10,7 - 9 5 - - SW 1008,3 10 24 0,0
23.06.2017 19:00:00 17,1 10,7 - 22 12 - - WSW 1007,9 10 12 0,0
23.06.2017 18:00:00 17,5 12,3 - 21 11 - - WSW 1008,2 10 12 0,0
23.06.2017 17:00:00 17,1 13,0 - 22 12 - - WSW 1008,2 10 0 0,0
23.06.2017 16:00:00 17,2 14,5 - 18 10 52 28 WSW 1007,8 10 0 0,2
23.06.2017 15:00:00 18,4 13,7 - 34 18 57 31 WSW 1007,3 10 6 0,0
23.06.2017 14:00:00 18,1 13,8 - 35 19 59 32 WSW 1006,9 10 6 0,0
23.06.2017 13:00:00 18,7 13,7 - 41 22 63 34 SW 1006,6 10 42 0,0
23.06.2017 12:00:00 17,7 13,5 - 39 21 59 32 SW 1006,3 10 6 0,0
23.06.2017 11:00:00 16,4 13,1 - 26 14 50 27 SW 1006,5 10 0 0,0
23.06.2017 10:00:00 15,6 12,6 - 16 9 - - WSW 1006,8 10 0 0,0
23.06.2017 09:00:00 15,1 12,0 - 13 7 - - WSW 1006,6 10 0 0,0
23.06.2017 08:00:00 14,5 11,9 - 28 15 48 26 SW 1006,5 10 0 0,0
23.06.2017 07:00:00 13,4 11,7 - 13 7 - - SSW 1007,2 10 0 0,0
23.06.2017 06:00:00 13,5 11,8 - 9 5 - - SW 1007,2 10 0 0,4
23.06.2017 05:00:00 13,3 11,4 - 16 9 - - SSW 1006,9 10 0 0,2
23.06.2017 04:00:00 13,2 11,1 - 11 6 - - SSW 1007,9 10 0 0,4
23.06.2017 03:00:00 13,3 10,8 - 15 8 - - SSW 1008,3 10 0 0,2
23.06.2017 02:00:00 13,6 10,9 - 13 7 - - SSW 1008,8 10 0 0,0
23.06.2017 01:00:00 13,9 11,1 - 13 7 - - SW 1009,4 10 - 0,0
23.06.2017 00:00:00 14,0 11,3 - 15 8 - - SW 1009,3 10 0 0,0
22.06.2017 23:00:00 14,6 11,8 - 16 9 - - WSW 1009,5 10 0 0,0
22.06.2017 22:00:00 12,8 12,3 - 9 5 - - SSE 1009,7 2,8 0 0,0
22.06.2017 21:00:00 13,4 12,2 - 8 4 - - SSE 1009,4 9 0 0,0
22.06.2017 20:00:00 14,2 12,0 - 4 2 - - SE 1009,5 10 12 0,0
22.06.2017 19:00:00 14,5 12,2 - 8 4 - - NNE 1009,3 18 30 0,0
22.06.2017 18:00:00 15,3 12,9 - 11 6 - - N 1009,3 10 30 0,0
22.06.2017 17:00:00 15,8 13,3 - 21 11 - - NNE 1009,0 10 18 0,0
22.06.2017 16:00:00 16,1 13,7 - 16 9 - - N 1009,3 10 0 0,0
22.06.2017 15:00:00 15,4 13,4 - 18 10 - - NNW 1009,1 10 0 0,0
22.06.2017 14:00:00 16,5 13,6 - 24 13 - - NNW 1008,4 11 6 0,0
22.06.2017 13:00:00 17,7 13,7 - 21 11 - - N 1007,9 10 30 0,0
22.06.2017 12:00:00 17,2 14,4 - 13 7 - - NNW 1008,0 10 0 0,0
22.06.2017 11:00:00 17,4 15,0 - 15 8 - - NW 1007,9 10 0 0,0
22.06.2017 10:00:00 16,4 14,7 - 15 8 - - WNW 1007,7 9 0 0,4
22.06.2017 09:00:00 18,5 16,1 - 16 9 - - NW 1006,9 8 0 0,0
22.06.2017 08:00:00 19,6 16,4 - 11 6 - - NW 1006,4 8 36 0,0
22.06.2017 07:00:00 19,0 16,8 - 16 9 - - W 1006,1 7 0 0,0
22.06.2017 06:00:00 18,3 16,5 - 8 4 - - W 1005,9 6 0 0,0
22.06.2017 05:00:00 17,9 16,1 - 13 7 - - W 1006,0 6 0 0,0
22.06.2017 04:00:00 17,8 15,7 - 13 7 - - WSW 1006,0 10 0 0,0
22.06.2017 03:00:00 14,7 14,4 - 9 5 - - SSW 1006,5 4,4 0 0,0
22.06.2017 02:00:00 14,5 14,2 - 4 2 - - SSW 1007,1 5 0 0,0
22.06.2017 01:00:00 13,5 13,1 - 5 3 - - S 1007,4 5 - 0,0
22.06.2017 00:00:00 13,8 13,4 - 2 1 - - W 1007,5 4,8 0 0,0
21.06.2017 23:00:00 13,8 13,3 - 11 6 - - SSE 1008,2 3,9 0 0,0
21.06.2017 22:00:00 13,8 13,1 - 9 5 - - SSE 1008,7 6 0 0,0
21.06.2017 21:00:00 14,2 13,3 - 11 6 - - SSE 1009,4 7 0 0,0
21.06.2017 20:00:00 14,3 13,4 - 16 9 - - SSE 1010,2 7 0 0,0
21.06.2017 19:00:00 14,4 13,3 - 11 6 - - SE 1010,6 6 0 0,0
21.06.2017 18:00:00 14,5 13,5 - 21 11 - - SSE 1011,3 9 0 0,0
21.06.2017 17:00:00 14,3 13,3 - 18 10 - - SSE 1011,9 8 0 0,0
21.06.2017 16:00:00 14,6 13,2 - 16 9 - - SSE 1013,0 7 30 0,0
21.06.2017 15:00:00 15,0 13,3 - 22 12 - - SSE 1013,2 10 18 0,0
21.06.2017 14:00:00 14,9 13,7 - 21 11 - - SSE 1014,3 8 0 0,0
21.06.2017 13:00:00 14,5 13,8 - 24 13 - - SSE 1014,8 7 0 0,0
21.06.2017 12:00:00 13,6 13,2 - 26 14 - - S 1015,2 7 0 0,0
21.06.2017 11:00:00 13,4 13,1 - 22 12 - - S 1015,8 6 0 0,8
21.06.2017 10:00:00 13,6 12,4 14,5 28 15 - - SSE 1015,9 6 0 0,2
21.06.2017 09:00:00 13,6 12,0 - 24 13 - - SSE 1016,3 10 0 0,0
21.06.2017 08:00:00 14,5 12,2 - 24 13 - - SE 1016,9 10 6 0,0
21.06.2017 07:00:00 13,6 11,6 - 18 10 - - SSE 1017,7 10 0 0,0
21.06.2017 06:00:00 13,4 11,6 - 21 11 - - SSE 1017,9 10 0 0,0

tt = temperature
td = dewpoint
tt 5cm = temperature 5cm
ff = wind speed
fx = gusts
dd = wind direction
ppp = reduced air pressure
vv = visibility
sd = sunshine duration
rr = precipitation

Next stations